Greenville, AL

10:56 AM CDT on June 27, 2017 (GMT -0500)
Greenville Municipal

Weather History for KPRN - December, 2011

Change the Weather History Date:

Saturday, December 24, 2011

  Actual Average Record
Temperature  
Mean Temperature 52 °F -  
Max Temperature 61 °F 59 °F 80 °F (1931)
Min Temperature 43 °F 36 °F 5 °F (1989)
Degree Days  
Heating Degree Days 13    
Growing Degree Days 2 (Base 50)    
Moisture  
Dew Point 42 °F    
Average Humidity 74    
Maximum Humidity 89    
Minimum Humidity 50    
Precipitation  
Precipitation 0.00 in - - ()
Sea Level Pressure  
Sea Level Pressure 30.33 in    
Wind  
Wind Speed 6 mph (North)    
Max Wind Speed 9 mph    
Max Gust Speed -    
Visibility 10 miles    
Events Hail    
Averages and records for this station are not official NWS values.
T = Trace of Precipitation, MM = Missing Value Source: NWS Daily Summary

Daily Weather History Graph

Daily Weather History Graph

Search for Another Location

Airport or City:

Trip Planner

Search our weather history database for the weather conditions in past years. The results will help you decide how hot, cold, wet, or windy it might be!

Date:

Astronomy

Dec. 24, 2011 Rise Set
Actual Time 6:43 AM CST 4:48 PM CST
Civil Twilight 6:16 AM CST 5:15 PM CST
Nautical Twilight 5:46 AM CST 5:45 PM CST
Astronomical Twilight 5:16 AM CST 6:15 PM CST
Moon 6:31 AM CST (12/24) 5:00 PM CST (12/24)
Length of Visible Light 10h 58m
Length of Day
10h 04m
New Moon, 0% of the Moon is Illuminated
Dec 24
New Moon
Dec 24
New
Jan 1
First Quarter
Jan 9
Full
Jan 16
Last Quarter

Hourly Weather History & Observations

Time (CST) Temp. Windchill Dew Point Humidity Pressure Visibility Wind Dir Wind Speed Gust Speed Precip Events Conditions
12:30 AM - - - N/A% - - North - - N/A Hail Hail
12:56 AM 46.0 °F 41.9 °F 41.0 °F 83% 30.31 in 10.0 mi North 8.1 mph - N/A   Overcast
1:56 AM 46.0 °F 41.4 °F 41.0 °F 83% 30.30 in 10.0 mi NNE 9.2 mph - N/A   Overcast
2:19 AM 45.0 °F 41.8 °F 39.9 °F 82% 30.31 in 10.0 mi North 5.8 mph - N/A   Scattered Clouds
2:56 AM 44.1 °F 42.5 °F 39.9 °F 85% 30.32 in 10.0 mi North 3.5 mph - N/A   Clear
3:56 AM 43.0 °F 39.5 °F 39.9 °F 89% 30.32 in 9.0 mi North 5.8 mph - N/A   Clear
4:56 AM 43.0 °F 38.8 °F 39.9 °F 89% 30.33 in 9.0 mi North 6.9 mph - N/A   Clear
5:56 AM 43.0 °F 40.3 °F 39.9 °F 89% 30.33 in 10.0 mi NNW 4.6 mph - N/A   Clear
6:56 AM 43.0 °F 38.8 °F 39.9 °F 89% 30.35 in 10.0 mi North 6.9 mph - N/A   Clear
7:56 AM 44.1 °F 40.8 °F 39.9 °F 85% 30.37 in 10.0 mi North 5.8 mph - N/A   Clear
8:56 AM 46.9 °F - 39.9 °F 77% 30.41 in 10.0 mi NNE 8.1 mph - N/A   Partly Cloudy
9:56 AM 50.0 °F - 41.0 °F 71% 30.41 in 10.0 mi North 5.8 mph - N/A   Clear
10:56 AM 52.0 °F - 41.0 °F 66% 30.38 in 10.0 mi NNE 5.8 mph - N/A   Clear
11:56 AM 55.9 °F - 41.0 °F 57% 30.33 in 10.0 mi Variable 3.5 mph - N/A   Clear
12:56 PM 57.9 °F - 41.0 °F 53% 30.31 in 10.0 mi NNE 6.9 mph - N/A   Clear
1:56 PM 59.0 °F - 42.1 °F 53% 30.30 in 10.0 mi ENE 3.5 mph - N/A   Clear
2:56 PM 61.0 °F - 42.1 °F 50% 30.30 in 10.0 mi ENE 4.6 mph - N/A   Clear
3:56 PM 60.1 °F - 43.0 °F 53% 30.29 in 10.0 mi NNE 4.6 mph - N/A   Clear
4:56 PM 55.9 °F - 44.1 °F 64% 30.30 in 10.0 mi NNE 3.5 mph - N/A   Clear
5:56 PM 51.1 °F - 45.0 °F 80% 30.30 in 10.0 mi North 4.6 mph - N/A   Clear
6:56 PM 51.1 °F - 44.1 °F 77% 30.32 in 10.0 mi North 6.9 mph - N/A   Clear
7:56 PM 50.0 °F - 43.0 °F 77% 30.33 in 10.0 mi North 4.6 mph - N/A   Clear
8:56 PM 50.0 °F - 42.1 °F 74% 30.34 in 10.0 mi North 3.5 mph - N/A   Clear
10:56 PM 50.0 °F - 43.0 °F 77% 30.34 in 10.0 mi North 4.6 mph - N/A   Clear
11:45 PM - - - N/A% - - North - - N/A Hail Hail
11:56 PM 50.0 °F - 43.0 °F 77% 30.33 in 10.0 mi North 4.6 mph - N/A   Clear